Location: Unspecified
(52.1971°N, 0.0000°E)
Time: 06:51:41
(UTC+00:00)

YUBILEINY - Pass Details

Date: 22 December 2019
Orbit: 1478 x 1509 km, 82.5° (Epoch: 20 January)

Event Time Altitude Azimuth Distance (km) Brightness Sun altitude
Rises 20:29:28 0° 193° (SSW) 4,602 ? -41.2°
Enters shadow 20:31:20 - 194° (SSW) 3,966 ? -41.4°
Exits shadow 20:48:46 15° 9° (N) 3,273 ? -44.0°
Drops below altitude 10° 20:49:50 10° 10° (N) 3,630 ? -44.1°
Sets 20:52:43 0° 12° (NNE) 4,613 ? -44.6°
